Location: ???????
(55.3754°N, 39.3545°E)
Time: 21:56:47
(UTC+00:00)

Meteor 1-25 Rocket - Pass Details

Date: 14 April 2026
Orbit: 835 x 891 km, 81.2° (Epoch: 11 May)

Event Time Altitude Azimuth Distance (km) Brightness Sun altitude
Rises 23:00:07 0° 343° (NNW) 3,516 8.1 -21.8°
Reaches altitude 10° 23:02:37 10° 340° (NNW) 2,571 7.3 -21.7°
Maximum altitude 23:08:19 56° 264° (W) 1,053 4.4 -21.3°
Enters shadow 23:09:54 43° 214° (SW) 1,236 4.5 -21.2°
